DW4933 Weather Reports


Display with metric or nautical units.
time (UTC)temp
F
wind
direction
speed
MPH
gust
MPH
rain 1hr
in
rain 24hr
in
rain mn
in
humidity
%
barometer
mb
20260506123100 55 230 0.0 0.0 0.03 0.18 0.06 95 1006.1
20260506121556 54 91 0.0 0.0 0.01 0.16 0.04 95 1006.0
20260506120052 0 0.0 0.0 0.00 0.15 0.03 1006.0
20260506114556 0 0.0 0.0 0.00 0.15 0.03 1006.4
20260506113049 0 0.0 0.0 0.01 0.15 0.03 1006.3
20260506111540 0 0.0 0.0 0.02 0.15 0.03 1006.3
20260506110037 0 0.0 0.0 0.03 0.15 0.03 1006.4
20260506104540 52 93 0.0 0.0 0.03 0.15 0.03 93 1006.6
20260506103036 52 91 0.0 0.0 0.02 0.14 0.02 93 1006.4
20260506101539 52 91 0.0 0.0 0.01 0.13 0.01 93 1006.2
20260506100032 52 91 0.0 0.0 0.00 0.12 0.00 92 1006.1
20260506094530 52 92 0.0 0.0 0.00 0.12 0.00 92 1005.9
20260506093028 52 91 0.0 0.0 0.00 0.12 0.00 91 1005.9
20260506091526 52 91 0.0 0.0 0.00 0.12 0.00 90 1006.1
20260506090024 52 91 0.0 0.0 0.00 0.12 0.00 90 1006.2
20260506084532 53 91 0.0 0.0 0.00 0.12 0.00 88 1006.7
20260506083020 53 91 0.0 0.0 0.00 0.12 0.00 87 1006.7
20260506081523 53 91 0.0 0.0 0.00 0.12 0.00 86 1006.5
20260506073015 54 91 0.0 0.0 0.00 0.12 0.00 87 1006.5
20260506071514 54 91 0.0 0.0 0.00 0.12 0.00 87 1006.4
20260506061506 54 91 0.0 0.0 0.00 0.12 0.00 87 1007.0
20260506044632 55 281 0.0 0.0 0.00 0.12 0.00 87 1008.2
20260506043054 55 281 0.0 0.0 0.00 0.12 0.00 87 1008.0
20260506041551 56 281 0.0 0.0 0.00 0.12 0.00 86 1008.1
20260506040048 56 281 0.0 0.0 0.00 0.12 0.00 86 1008.4
20260506034546 56 281 0.0 0.0 0.00 0.12 0.12 86 1008.7
20260506033044 57 263 0.0 0.0 0.00 0.12 0.12 86 1008.6
20260506031542 57 263 0.0 0.0 0.00 0.12 0.12 87 1008.4
20260506030040 57 115 0.0 0.0 0.00 0.12 0.12 86 1008.4
20260506024536 59 125 0.0 0.0 0.00 0.12 0.12 87 1008.3
20260506023043 59 91 0.0 0.0 0.00 0.12 0.12 91 1008.2
20260506021534 59 98 0.0 0.0 0.00 0.12 0.12 92 1007.9
20260506020031 60 98 0.0 0.0 0.00 0.12 0.12 92 1007.7
20260506014525 60 98 0.0 0.0 0.00 0.12 0.12 92 1007.6
20260506013024 60 98 0.0 0.0 0.00 0.12 0.12 92 1007.5
20260506011522 60 263 0.0 0.0 0.00 0.12 0.12 92 1007.1
20260506010040 60 263 0.0 0.0 0.00 0.12 0.12 91 1006.9
20260506004525 60 263 0.0 0.0 0.00 0.12 0.12 91 1006.7
20260506003020 60 263 0.0 0.0 0.00 0.12 0.12 91 1006.3
20260506001519 61 263 0.0 0.0 0.00 0.12 0.12 91 1006.3
20260506000017 61 263 0.0 0.0 0.00 0.12 0.12 90 1006.1
20260505234531 61 263 0.0 0.0 0.00 0.12 0.12 90 1006.2
20260505233013 62 263 0.0 0.0 0.00 0.12 0.12 90 1006.1
20260505231513 62 263 0.0 0.0 0.01 0.12 0.12 89 1006.0
20260505230011 62 263 0.0 0.0 0.01 0.12 0.12 89 1006.0
20260505224511 63 263 0.0 0.0 0.01 0.12 0.12 88 1005.9
20260505223010 63 263 0.0 0.0 0.01 0.12 0.12 86 1005.8
20260505221509 64 80 0.0 0.0 0.00 0.11 0.11 84 1006.0
20260505220008 65 80 0.0 0.0 0.00 0.11 0.11 82 1005.4
20260505214508 66 114 0.0 0.0 0.00 0.11 0.11 78 1005.4
20260505213008 65 114 0.0 0.0 0.00 0.11 0.11 82 1005.1
20260505211505 65 108 0.0 0.0 0.00 0.11 0.11 83 1005.3
20260505210003 63 107 0.0 0.0 0.01 0.11 0.11 87 1005.4
20260505204502 62 287 0.0 0.0 0.11 0.11 0.11 89 1005.6
20260505203005 62 287 0.0 0.0 0.11 0.11 0.11 88 1005.8
20260505201559 63 287 0.0 0.0 0.11 0.11 0.11 86 1005.9
20260505200106 64 273 0.0 0.0 0.10 0.10 0.10 79 1006.0
20260505194605 76 252 2.0 10.0 0.00 0.00 0.00 39 1004.5
20260505193053 77 277 0.0 11.0 0.00 0.00 0.00 38 1003.5
20260505191556 78 98 0.0 13.0 0.00 0.00 0.00 37 1003.4
20260505190049 77 217 0.0 14.0 0.00 0.00 0.00 39 1003.8
20260505184548 78 256 0.0 4.0 0.00 0.00 0.00 38 1003.8
20260505183046 77 277 0.0 13.0 0.00 0.00 0.00 41 1004.3
20260505181542 77 287 2.0 13.0 0.00 0.00 0.00 41 1004.6
20260505174557 75 313 2.0 13.0 0.00 0.00 0.00 43 1004.9
20260505173045 75 304 0.0 9.0 0.00 0.00 0.00 43 1005.0
20260505171538 76 184 0.0 11.0 0.00 0.00 0.00 43 1005.1
20260505170037 76 231 1.0 9.0 0.00 0.00 0.00 42 1004.8
20260505164535 76 304 0.0 11.0 0.00 0.00 0.00 42 1004.9
20260505163034 77 300 0.0 11.0 0.00 0.00 0.00 42 1005.2
20260505161535 77 288 3.0 14.0 0.00 0.00 0.00 41 1005.4
20260505153030 76 285 0.0 11.0 0.00 0.00 0.00 42 1005.7
20260505151525 75 64 1.0 13.0 0.00 0.00 0.00 42 1005.6
20260505124558 65 1 0.0 8.0 0.00 0.00 0.00 56 1006.7